BWA25Q TJSJ-TTPP

Flight info

Callsign BWA25Q
Flight time N/A
Altitude 21000
Route SJU RTE2 COY A555 ILURI DCT TULEX DCT ALGUS DCT GND A324 POS
Aircraft AT76/M-SDFGIRY/S

Departure

Time N/A
Airport Luis Munoz Marin International Airport (TJSJ)

Arrival

Time 2026-05-01 12:44
Airport Piarco International Airport (TTPP)
Time Latitude Longitude Altitude Speed Heading
2026-05-01 11:50 13.70852 -62.36460 20998 ft 250 kts 179°
2026-05-01 11:51 13.69114 -62.36350 20997 ft 250 kts 179°
2026-05-01 11:51 13.67378 -62.36243 20999 ft 250 kts 179°
2026-05-01 11:51 13.65644 -62.36126 21000 ft 250 kts 179°
2026-05-01 11:51 13.63910 -62.36002 20997 ft 250 kts 178°
2026-05-01 11:52 13.62199 -62.35891 20994 ft 250 kts 179°
2026-05-01 11:52 13.60445 -62.35769 20993 ft 250 kts 178°
2026-05-01 11:52 13.58710 -62.35658 20994 ft 250 kts 178°
2026-05-01 11:52 13.56974 -62.35541 20995 ft 250 kts 178°
2026-05-01 11:53 13.55264 -62.35420 20994 ft 250 kts 178°
2026-05-01 11:53 13.53531 -62.35306 20999 ft 250 kts 179°
2026-05-01 11:53 13.51796 -62.35188 20996 ft 249 kts 179°
2026-05-01 11:53 13.50064 -62.35074 20995 ft 249 kts 179°
2026-05-01 11:54 13.48333 -62.34965 20996 ft 249 kts 179°
2026-05-01 11:54 13.46603 -62.34851 20995 ft 249 kts 179°
2026-05-01 11:54 13.44871 -62.34738 20996 ft 250 kts 179°
2026-05-01 11:54 13.43137 -62.34622 20998 ft 250 kts 179°
2026-05-01 11:55 13.41412 -62.34417 20997 ft 250 kts 167°
2026-05-01 11:55 13.39779 -62.33789 20996 ft 251 kts 160°
2026-05-01 11:55 13.38184 -62.33052 20995 ft 252 kts 159°
2026-05-01 11:55 13.36581 -62.32325 20996 ft 251 kts 161°
2026-05-01 11:56 13.34964 -62.31645 20998 ft 251 kts 162°
2026-05-01 11:56 13.33332 -62.31004 20999 ft 251 kts 163°
2026-05-01 11:56 13.31700 -62.30363 20999 ft 252 kts 162°
2026-05-01 11:56 13.30062 -62.29725 20998 ft 252 kts 162°
2026-05-01 11:57 13.28422 -62.29093 20999 ft 252 kts 163°
2026-05-01 11:57 13.26776 -62.28459 20996 ft 252 kts 163°
2026-05-01 11:57 13.25139 -62.27817 20997 ft 251 kts 162°
2026-05-01 11:57 13.23502 -62.27179 20996 ft 252 kts 161°
2026-05-01 11:58 13.21868 -62.26528 20998 ft 252 kts 161°
2026-05-01 11:58 13.20235 -62.25881 20999 ft 252 kts 161°
2026-05-01 11:58 13.16971 -62.24586 20999 ft 252 kts 161°
2026-05-01 11:59 13.15340 -62.23931 20997 ft 252 kts 161°
2026-05-01 11:59 13.13712 -62.23272 20998 ft 251 kts 161°
2026-05-01 11:59 13.12086 -62.22627 20997 ft 251 kts 161°
2026-05-01 12:00 13.08829 -62.21319 20999 ft 251 kts 162°
2026-05-01 12:00 13.07203 -62.20662 21001 ft 251 kts 162°
2026-05-01 12:00 13.03967 -62.19378 21001 ft 251 kts 162°
2026-05-01 12:01 13.02336 -62.18741 21000 ft 251 kts 162°
2026-05-01 12:01 13.00701 -62.18109 20994 ft 251 kts 162°
2026-05-01 12:01 12.99065 -62.17476 20994 ft 251 kts 163°
2026-05-01 12:01 12.97431 -62.16834 20992 ft 251 kts 162°
2026-05-01 12:02 12.95797 -62.16197 20995 ft 251 kts 161°
2026-05-01 12:02 12.94158 -62.15564 20995 ft 252 kts 161°
2026-05-01 12:02 12.92525 -62.14920 20996 ft 252 kts 161°
2026-05-01 12:02 12.90888 -62.14271 20996 ft 252 kts 161°
2026-05-01 12:03 12.89252 -62.13620 20996 ft 252 kts 161°
2026-05-01 12:03 12.87616 -62.12973 20994 ft 252 kts 162°
2026-05-01 12:03 12.85983 -62.12317 20993 ft 252 kts 162°
2026-05-01 12:03 12.84350 -62.11666 20992 ft 252 kts 161°
2026-05-01 12:04 12.82715 -62.11016 20993 ft 252 kts 162°
2026-05-01 12:04 12.81085 -62.10355 20994 ft 252 kts 162°
2026-05-01 12:04 12.79455 -62.09700 20993 ft 252 kts 162°
2026-05-01 12:04 12.77821 -62.09056 20993 ft 252 kts 161°
2026-05-01 12:05 12.76189 -62.08405 20993 ft 252 kts 162°
2026-05-01 12:05 12.72935 -62.07140 20993 ft 252 kts 163°
2026-05-01 12:05 12.71295 -62.06510 20993 ft 252 kts 162°
2026-05-01 12:06 12.69660 -62.05867 20994 ft 252 kts 162°
2026-05-01 12:06 12.68024 -62.05227 20993 ft 252 kts 162°
2026-05-01 12:06 12.66385 -62.04593 20993 ft 252 kts 162°
2026-05-01 12:06 12.64745 -62.03955 20993 ft 252 kts 161°
2026-05-01 12:07 12.63107 -62.03311 20991 ft 252 kts 161°
2026-05-01 12:07 12.61469 -62.02663 20992 ft 253 kts 161°
2026-05-01 12:07 12.59832 -62.02006 20991 ft 252 kts 161°
2026-05-01 12:07 12.58199 -62.01346 20990 ft 252 kts 162°
2026-05-01 12:08 12.56565 -62.00698 20990 ft 252 kts 161°
2026-05-01 12:08 12.54928 -62.00053 20990 ft 252 kts 162°
2026-05-01 12:08 12.53294 -61.99407 20991 ft 252 kts 162°
2026-05-01 12:08 12.51662 -61.98750 20990 ft 252 kts 162°
2026-05-01 12:09 12.50034 -61.98099 20990 ft 251 kts 162°
2026-05-01 12:09 12.48406 -61.97457 20991 ft 251 kts 162°
2026-05-01 12:09 12.46775 -61.96820 20987 ft 251 kts 162°
2026-05-01 12:09 12.45144 -61.96180 20987 ft 251 kts 161°
2026-05-01 12:10 12.43510 -61.95550 20986 ft 251 kts 161°
2026-05-01 12:10 12.40246 -61.94275 20987 ft 251 kts 162°
2026-05-01 12:10 12.38612 -61.93646 20987 ft 251 kts 162°
2026-05-01 12:11 12.35363 -61.92384 20987 ft 252 kts 161°
2026-05-01 12:11 12.33728 -61.91742 20987 ft 252 kts 161°
2026-05-01 12:11 12.32087 -61.91099 20984 ft 252 kts 161°
2026-05-01 12:12 12.30451 -61.90444 20982 ft 252 kts 161°
2026-05-01 12:12 12.28816 -61.89785 20982 ft 252 kts 161°
2026-05-01 12:12 12.27180 -61.89139 20981 ft 253 kts 161°
2026-05-01 12:12 12.25538 -61.88490 20983 ft 253 kts 162°
2026-05-01 12:13 12.23900 -61.87838 20980 ft 253 kts 161°
2026-05-01 12:13 12.22259 -61.87193 20975 ft 253 kts 162°
2026-05-01 12:13 12.20616 -61.86552 20971 ft 253 kts 162°
2026-05-01 12:13 12.18974 -61.85912 20972 ft 253 kts 162°
2026-05-01 12:14 12.17331 -61.85275 20973 ft 253 kts 162°
2026-05-01 12:14 12.15682 -61.84643 20970 ft 253 kts 162°
2026-05-01 12:14 12.14039 -61.84003 20969 ft 253 kts 161°
2026-05-01 12:14 12.12397 -61.83354 20968 ft 253 kts 162°
2026-05-01 12:15 12.10753 -61.82703 20965 ft 253 kts 161°
2026-05-01 12:15 12.09111 -61.82054 20965 ft 253 kts 161°
2026-05-01 12:15 12.07467 -61.81404 20965 ft 253 kts 161°
2026-05-01 12:15 12.05825 -61.80755 20966 ft 253 kts 161°
2026-05-01 12:16 12.04736 -61.80326 20967 ft 254 kts 162°
2026-05-01 12:16 12.03093 -61.79670 20966 ft 253 kts 161°
2026-05-01 12:16 12.01449 -61.79013 20966 ft 253 kts 162°
2026-05-01 12:16 11.99807 -61.78372 20969 ft 252 kts 164°
2026-05-01 12:17 11.98121 -61.77893 20967 ft 252 kts 169°
2026-05-01 12:17 11.96412 -61.77502 20966 ft 252 kts 170°
2026-05-01 12:17 11.94704 -61.77108 20977 ft 251 kts 170°
2026-05-01 12:17 11.92998 -61.76708 20977 ft 252 kts 169°
2026-05-01 12:18 11.91296 -61.76279 20974 ft 252 kts 168°
2026-05-01 12:18 11.89599 -61.75844 20976 ft 252 kts 169°
2026-05-01 12:18 11.87907 -61.75389 20976 ft 251 kts 167°
2026-05-01 12:18 11.86213 -61.74943 20976 ft 251 kts 168°
2026-05-01 12:19 11.84517 -61.74501 20978 ft 252 kts 168°
2026-05-01 12:19 11.82817 -61.74065 20978 ft 252 kts 168°
2026-05-01 12:19 11.81116 -61.73619 20977 ft 252 kts 168°
2026-05-01 12:19 11.79419 -61.73169 20977 ft 252 kts 168°
2026-05-01 12:20 11.77746 -61.72740 20974 ft 252 kts 169°
2026-05-01 12:20 11.76049 -61.72306 20975 ft 251 kts 169°
2026-05-01 12:20 11.74356 -61.71863 20977 ft 251 kts 169°
2026-05-01 12:20 11.72701 -61.71432 20977 ft 251 kts 169°
2026-05-01 12:21 11.71009 -61.70998 20979 ft 251 kts 168°
2026-05-01 12:21 11.69315 -61.70568 20978 ft 251 kts 168°
2026-05-01 12:21 11.67621 -61.70137 20978 ft 251 kts 169°
2026-05-01 12:21 11.65923 -61.69715 20979 ft 251 kts 168°
2026-05-01 12:22 11.64224 -61.69296 20979 ft 251 kts 169°
2026-05-01 12:22 11.62525 -61.68872 20979 ft 252 kts 168°
2026-05-01 12:22 11.60828 -61.68435 20980 ft 252 kts 169°
2026-05-01 12:22 11.59135 -61.67987 20980 ft 252 kts 167°
2026-05-01 12:23 11.57437 -61.67546 20974 ft 252 kts 167°
2026-05-01 12:23 11.55742 -61.67098 20975 ft 252 kts 168°
2026-05-01 12:23 11.54046 -61.66652 20981 ft 251 kts 168°
2026-05-01 12:23 11.52355 -61.66202 20982 ft 251 kts 169°
2026-05-01 12:24 11.50666 -61.65763 20983 ft 251 kts 168°
2026-05-01 12:24 11.48968 -61.65337 20983 ft 251 kts 169°
2026-05-01 12:24 11.47275 -61.64906 20983 ft 251 kts 168°
2026-05-01 12:24 11.45579 -61.64475 20982 ft 251 kts 168°
2026-05-01 12:25 11.43883 -61.64055 20984 ft 251 kts 168°
2026-05-01 12:25 11.40479 -61.63202 20987 ft 252 kts 168°
2026-05-01 12:25 11.38780 -61.62766 20987 ft 252 kts 168°
2026-05-01 12:26 11.37102 -61.62389 20984 ft 248 kts 176°
2026-05-01 12:26 11.33674 -61.62638 20986 ft 247 kts 189°
2026-05-01 12:26 11.31964 -61.62862 20983 ft 248 kts 188°
2026-05-01 12:27 11.30252 -61.63050 20986 ft 248 kts 187°
2026-05-01 12:27 11.26805 -61.63338 20989 ft 249 kts 185°
2026-05-01 12:28 11.23351 -61.63619 20989 ft 249 kts 186°
2026-05-01 12:28 11.21622 -61.63764 20908 ft 252 kts 187°
2026-05-01 12:28 11.17946 -61.64071 20227 ft 277 kts 186°
2026-05-01 12:29 11.15993 -61.64234 19864 ft 286 kts 185°
2026-05-01 12:29 11.13979 -61.64402 19495 ft 294 kts 185°
2026-05-01 12:29 11.09810 -61.64751 18734 ft 306 kts 185°
2026-05-01 12:30 11.05508 -61.65108 17902 ft 314 kts 185°
2026-05-01 12:30 11.03320 -61.65288 17450 ft 316 kts 185°
2026-05-01 12:30 11.01142 -61.65469 17002 ft 311 kts 185°
2026-05-01 12:31 10.98998 -61.65647 16568 ft 307 kts 184°
2026-05-01 12:31 10.96883 -61.65823 16148 ft 303 kts 184°
2026-05-01 12:31 10.94793 -61.65997 15737 ft 300 kts 184°
2026-05-01 12:31 10.92720 -61.66167 15335 ft 298 kts 184°
2026-05-01 12:32 10.90660 -61.66337 14935 ft 296 kts 184°
2026-05-01 12:32 10.86587 -61.66674 14153 ft 292 kts 184°
2026-05-01 12:32 10.84586 -61.66841 13781 ft 291 kts 183°
2026-05-01 12:33 10.82569 -61.67006 13332 ft 291 kts 184°
2026-05-01 12:33 10.80559 -61.67177 12904 ft 288 kts 183°
2026-05-01 12:33 10.78578 -61.67337 12487 ft 284 kts 183°
2026-05-01 12:33 10.76622 -61.67499 12080 ft 281 kts 184°
2026-05-01 12:34 10.74679 -61.67654 11676 ft 279 kts 182°
2026-05-01 12:34 10.72751 -61.67815 11275 ft 277 kts 184°
2026-05-01 12:34 10.70831 -61.67978 10885 ft 276 kts 184°
2026-05-01 12:34 10.68918 -61.68137 10499 ft 276 kts 183°
2026-05-01 12:35 10.67003 -61.68293 10098 ft 276 kts 183°
2026-05-01 12:35 10.65087 -61.68414 9670 ft 275 kts 179°
2026-05-01 12:35 10.63212 -61.68194 9256 ft 270 kts 159°
2026-05-01 12:35 10.61736 -61.67141 8894 ft 248 kts 128°
2026-05-01 12:36 10.61034 -61.65680 8581 ft 216 kts 110°
2026-05-01 12:36 10.60510 -61.64315 8255 ft 200 kts 110°
2026-05-01 12:36 10.60026 -61.63045 7908 ft 186 kts 110°
2026-05-01 12:36 10.59580 -61.61850 7549 ft 178 kts 110°
2026-05-01 12:37 10.59310 -61.60639 7191 ft 176 kts 87°
2026-05-01 12:37 10.59402 -61.59397 6847 ft 176 kts 85°
2026-05-01 12:37 10.59491 -61.58157 6503 ft 174 kts 86°
2026-05-01 12:37 10.59537 -61.56952 6139 ft 162 kts 89°
2026-05-01 12:38 10.59535 -61.55862 5683 ft 147 kts 91°
2026-05-01 12:38 10.59510 -61.54852 5243 ft 139 kts 91°
2026-05-01 12:38 10.59485 -61.53889 4811 ft 134 kts 91°
2026-05-01 12:38 10.59471 -61.52952 4371 ft 131 kts 91°
2026-05-01 12:39 10.59470 -61.52034 3932 ft 129 kts 90°
2026-05-01 12:39 10.59479 -61.51131 3500 ft 127 kts 89°
2026-05-01 12:39 10.59488 -61.50243 3060 ft 125 kts 90°
2026-05-01 12:39 10.59496 -61.49425 2882 ft 115 kts 89°
2026-05-01 12:40 10.59502 -61.48571 2613 ft 124 kts 90°
2026-05-01 12:40 10.59499 -61.47685 2380 ft 127 kts 90°
2026-05-01 12:40 10.59490 -61.46797 2163 ft 124 kts 91°
2026-05-01 12:40 10.59496 -61.45936 1991 ft 120 kts 89°
2026-05-01 12:41 10.59523 -61.45094 1878 ft 120 kts 91°
2026-05-01 12:41 10.59523 -61.44241 1689 ft 119 kts 91°
2026-05-01 12:41 10.59502 -61.43410 1534 ft 116 kts 91°
2026-05-01 12:41 10.59492 -61.42601 1384 ft 113 kts 89°
2026-05-01 12:42 10.59508 -61.41812 1270 ft 112 kts 90°
2026-05-01 12:42 10.59526 -61.41001 1136 ft 117 kts 91°
2026-05-01 12:42 10.59523 -61.40158 980 ft 120 kts 91°
2026-05-01 12:42 10.59508 -61.39310 829 ft 120 kts 91°
2026-05-01 12:43 10.59521 -61.38461 696 ft 121 kts 90°
2026-05-01 12:43 10.59540 -61.37599 522 ft 120 kts 91°
2026-05-01 12:43 10.59535 -61.36802 365 ft 110 kts 94°
2026-05-01 12:43 10.59530 -61.36013 229 ft 112 kts 90°
2026-05-01 12:44 10.59533 -61.35214 90 ft 114 kts 90°
2026-05-01 12:44 10.59540 -61.34452 13 ft 96 kts 93°
2026-05-01 12:44 10.59537 -61.33750 13 ft 36 kts 88°
2026-05-01 12:45 10.59665 -61.33456 13 ft 15 kts 12°
2026-05-01 12:45 10.59709 -61.33532 14 ft 16 kts 266°
2026-05-01 12:45 10.59710 -61.33654 13 ft 20 kts 270°
2026-05-01 12:46 10.59709 -61.33789 13 ft 19 kts 270°
2026-05-01 12:46 10.59709 -61.33923 14 ft 19 kts 270°
2026-05-01 12:46 10.59708 -61.34054 14 ft 18 kts 270°
2026-05-01 12:46 10.59715 -61.34165 13 ft 9 kts 300°
2026-05-01 12:47 10.59732 -61.34179 13 ft 0 kts 332°
2026-05-01 12:48 10.59747 -61.34182 13 ft 5 kts 353°
2026-05-01 12:48 10.59802 -61.34184 13 ft 10 kts 359°
2026-05-01 12:48 10.59880 -61.34184 13 ft 12 kts
2026-05-01 12:48 10.59971 -61.34184 13 ft 14 kts 360°
2026-05-01 12:49 10.60059 -61.34182 13 ft 12 kts
2026-05-01 12:49 10.60112 -61.34130 13 ft 10 kts 56°
2026-05-01 12:49 10.60135 -61.34069 13 ft 8 kts 103°
2026-05-01 12:49 10.60105 -61.34037 13 ft 6 kts 148°
2026-05-01 12:50 10.60080 -61.34022 13 ft 0 kts 147°
2026-05-01 12:50 10.60078 -61.34020 13 ft 0 kts 147°